Zurück zum Katalog

FENGYUN 1C DEB

AktivPO
NORAD 31613·DEBRIS·🇨🇳 China

Gestartet May 10, 1999 von Taiyuan Satellite Launch Center

Loading…

Nächste Überflüge (nächste 24 Stunden)

TLE

AktuellSource: Space-Track

Epoche: Sep 13, 2026, 21:02 UTC

1 31613U 99025BZT 26256.87689682  .00000958  00000-0  83037-3 0  9990
2 31613  98.4491  53.1129 0343247  97.3029 266.7259 13.64263192955121

Verfolge FENGYUN 1C DEB in Echtzeit mit AllMySat

Download on the App Store